User: anonymous   Login
Location: Unspecified
(0.0000°N, 0.0000°E)
Time: 07:48:25
(UTC+00:00)
Language:

Ajisai (EGP) Rocket - Orbit

View from above orbital plane
View from above orbital plane
View from above satellite
View from above satellite

Ground track
Ground track

The orbit data is extracted from the following two-line orbital elements,

1 16910U 86061C   18112.96884632 -.00000085 +00000-0 +77220-4 0  9993
2 16910 050.0068 010.3939 0072251 057.7182 028.6729 12.32575945427268
Epoch (UTC): 22 April 2018 23:15:08
Eccentricity: 0.0072251
inclination: 50.0068°
perigee height: 1481 km
apogee height: 1595 km
right ascension of ascending node: 10.3939°
argument of perigee: 57.7182°
revolutions per day: 12.32575945
mean anomaly at epoch: 28.6729°
orbit number at epoch: 42726

The dashed part of the orbit path shows where the satellite is in the earth's shadow,  

DLR